User: anonymous   Login
Location: Unspecified
(0.0000°N, 0.0000°E)
Time: 20:05:35
(UTC+00:00)
Language:

STARLINK-3195 - Orbit

View from above orbital plane
View from above orbital plane
View from above satellite
View from above satellite

Ground track
Ground track

The orbit is defined by the following mean orbital elements,

1 49762U          26145.41518671 +.00000000 +00000-0 -63868-4 0 00008
2 49762  53.2127 154.6861 0001356  77.3225 282.7918 15.08823278    03
Epoch (UTC): 25 May 2026 09:57:52
Eccentricity: 0.0001356
inclination: 53.2127°
perigee height: 539 km
apogee height: 541 km
right ascension of ascending node: 154.6861°
argument of perigee: 77.3225°
revolutions per day: 15.08823278
mean anomaly at epoch: 282.7918°

The dashed part of the orbit path shows where the satellite is in the earth's shadow,  

DLR